Theta_e
354 355 352 352 353 353 350 350 349 348 348 349 349 349 348 346 341 340 341 347 350 351 352 351 349 350 350 354 354 351 353 346 339 350 349 341 344 348 347 341 339 345 342
354 355 352 352 353 351 350 349 348 349 349 349 349 350 349 351 349 349 350 351 353 352 352 352 352 350 350 353 353 353 352 351 351 352 351 349 350 349 351 352 350 347 351
355 356 355 351 352 352 351 348 347 347 348 349 350 350 350 352 352 353 353 350 351 352 353 352 352 352 350 350 352 353 351 351 351 351 351 349 341 350 350 346 352 350 349
354 354 355 352 352 351 349 348 348 351 348 347 350 351 351 353 352 352 352 352 352 352 353 352 352 352 351 351 352 352 346 345 346 341 347 345 347 345 350 346 350 349 345
352 354 355 351 351 350 350 348 349 351 353 353 352 352 350 352 351 352 352 352 352 352 352 350 352 352 348 351 351 348 345 342 339 341 343 340 347 349 345 347 345 349 346
352 354 354 352 349 350 348 348 347 344 348 345 342 339 336 341 343 344 346 346 345 351 351 351 350 349 351 349 351 345 340 338 338 341 341 339 344 342 338 346 343 346 345
352 354 356 351 352 350 349 349 348 347 345 343 342 345 344 338 339 340 340 342 345 347 351 348 350 350 349 349 350 341 335 335 336 339 343 344 344 343 341 340 337 340 336
352 351 355 352 353 353 353 348 349 348 348 348 348 343 339 338 338 339 339 344 345 349 349 351 352 352 352 350 343 338 337 338 339 336 339 341 343 342 341 343 333 338 343
351 353 352 349 352 352 348 342 342 344 342 346 340 341 338 341 341 342 342 344 349 352 350 352 353 348 349 345 347 343 342 341 340 342 343 342 344 342 344 338 341 334 340
352 353 350 348 351 349 344 339 341 344 340 340 339 340 342 339 340 340 340 341 350 352 352 351 349 344 343 347 349 347 345 347 343 343 334 341 345 341 340 344 334 334 338
353 353 351 350 349 351 345 341 340 343 347 341 340 340 341 341 343 341 342 347 351 351 350 350 350 346 343 344 343 346 348 346 345 344 337 340 344 341 339 339 340 341 336
354 353 352 350 351 352 346 348 348 342 344 341 340 340 342 342 346 346 344 344 346 343 347 347 347 343 342 348 348 348 347 346 346 346 345 346 342 337 338 342 342 343 341
352 352 352 352 353 350 348 347 350 345 343 342 340 341 341 340 340 343 347 349 344 333 345 344 342 345 350 351 350 347 348 349 348 346 346 345 340 338 341 344 337 337 336
352 352 353 353 351 352 350 350 349 346 340 341 340 339 340 339 340 346 347 348 347 348 346 341 343 348 351 350 351 349 349 346 344 347 346 341 340 339 339 346 345 338 331
352 350 351 353 353 350 350 349 348 344 345 345 340 339 340 343 341 345 346 347 345 348 348 345 349 351 351 350 350 349 348 348 347 348 341 337 338 338 339 347 347 346 335
351 353 351 352 354 349 348 349 347 346 345 345 342 340 340 340 343 345 345 343 345 345 346 347 349 351 350 350 350 348 349 347 345 347 342 339 338 336 340 345 347 348 346
351 351 352 351 352 350 350 350 348 349 349 344 346 343 342 342 345 346 346 343 348 348 352 350 349 349 352 348 350 351 350 349 346 347 345 341 338 338 342 340 344 344 339
350 350 352 352 351 350 351 350 349 347 348 346 346 346 343 345 344 347 349 346 350 348 352 353 346 348 351 348 349 351 351 349 345 346 347 344 343 345 344 341 339 339 339
351 352 351 352 351 351 350 350 348 346 348 347 344 346 346 345 347 348 346 347 350 351 338 347 350 350 345 349 350 353 352 350 345 345 344 344 346 348 340 343 343 344 345
351 351 349 349 349 350 350 350 348 348 348 346 345 344 346 344 344 347 349 348 352 351 350 352 349 351 349 342 347 351 349 351 348 343 342 345 345 346 346 346 342 343 342
352 353 350 351 350 351 350 350 347 349 347 344 347 347 347 346 349 348 348 348 349 353 347 343 353 350 346 352 351 351 351 351 349 345 344 343 342 346 347 344 342 344 343
352 352 351 353 355 354 352 348 348 348 349 348 348 348 345 346 348 348 348 350 345 351 353 353 346 351 350 351 338 342 348 352 350 350 348 347 344 344 348 347 344 345 346
352 353 353 354 355 353 350 348 349 349 347 346 346 345 343 349 351 346 350 335 351 347 352 347 348 349 348 351 351 350 349 348 348 350 349 348 346 345 348 347 349 347 347
351 352 355 356 356 355 353 349 350 349 348 348 347 348 345 349 349 350 352 351 352 351 346 352 351 351 353 351 348 352 351 339 351 354 354 351 350 350 346 346 347 349 349
351 353 356 357 357 355 353 350 349 349 348 347 348 348 347 349 351 352 351 350 353 350 352 348 354 352 352 353 349 348 354 352 352 350 349 347 351 351 350 348 347 347 348
348 350 354 358 357 357 354 352 350 350 348 347 347 347 345 350 351 351 352 350 352 350 351 353 354 353 353 353 349 351 349 349 348 349 348 347 347 348 350 350 350 349 349
Wind_Speed
22 23 22 20 19 21 21 21 21 20 18 17 18 19 18 18 19 18 16 15 14 13 12 12 11 10 10 9 10 11 13 16 18 19 19 23 23 23 24 18 20 20 20
25 23 24 21 21 22 22 21 21 20 19 18 17 17 16 15 15 14 13 12 11 11 12 11 10 10 10 9 9 10 13 14 15 17 18 18 16 18 19 19 17 19 17
26 23 22 21 20 22 22 22 22 20 17 16 16 15 14 13 13 12 11 9 8 9 8 9 9 8 9 9 9 10 11 12 13 14 15 14 15 14 18 18 18 19 18
25 23 21 22 20 21 23 22 21 19 18 16 15 14 12 11 9 8 6 5 5 5 5 6 7 7 8 8 8 9 9 10 11 12 7 8 11 13 14 17 17 17 18
24 23 22 22 21 23 24 24 23 19 17 17 16 15 11 9 8 6 5 4 4 3 3 3 5 6 7 8 9 10 11 11 5 4 8 11 14 13 15 16 17 15 16
26 21 22 22 21 23 22 22 23 22 20 17 16 12 9 5 6 4 2 2 3 3 3 4 5 6 7 9 12 12 10 8 1 0 3 10 13 12 14 16 18 17 15
26 22 20 22 22 23 23 23 23 19 18 17 14 12 9 5 2 1 2 2 3 3 4 4 5 7 8 11 14 13 10 12 9 4 6 7 14 16 17 16 16 17 16
24 23 20 23 21 21 21 21 21 20 18 18 18 14 9 3 3 4 5 3 2 3 5 6 6 7 10 12 12 11 9 10 9 12 10 9 13 16 18 19 17 14 15
25 26 19 19 19 18 20 20 19 16 15 15 14 10 6 5 6 5 5 3 4 3 4 5 5 7 8 9 11 10 8 7 6 10 9 10 18 14 18 18 19 17 15
22 21 21 19 17 17 18 16 13 12 11 13 12 9 6 5 5 8 9 3 5 4 5 6 7 8 7 7 11 11 12 10 12 8 7 19 14 13 18 20 21 21 18
20 23 19 18 16 14 16 13 9 10 10 10 12 8 8 5 5 4 5 6 7 7 8 9 8 7 4 6 12 13 13 15 11 14 19 16 15 14 17 21 25 22 22
18 17 21 20 17 14 13 10 7 11 12 12 14 10 9 8 6 9 11 10 10 8 9 7 7 8 10 9 11 10 13 10 15 17 15 16 18 14 13 15 27 22 21
19 17 16 18 18 15 13 12 10 13 14 10 14 10 9 9 7 13 14 16 12 9 6 8 9 11 11 14 8 5 15 9 11 16 16 17 17 14 13 15 22 23 22
25 21 20 18 17 16 14 12 11 12 17 13 14 12 10 10 11 13 13 15 14 16 12 5 10 12 9 6 4 7 3 2 8 12 14 14 16 15 12 12 15 22 24
25 22 20 18 16 17 15 13 15 17 15 13 15 16 12 11 13 13 9 9 11 10 8 8 9 13 10 9 9 5 4 5 11 18 12 11 11 13 13 11 12 15 23
18 21 18 17 14 16 14 14 16 16 18 15 14 15 15 12 12 8 12 10 5 6 7 4 3 8 8 13 7 6 3 1 14 15 13 14 11 12 13 13 14 14 15
21 19 17 14 16 15 13 12 14 16 14 17 15 15 15 15 13 11 15 12 1 5 2 6 9 7 6 15 8 6 7 3 15 9 11 14 14 14 14 14 14 15 16
20 24 21 16 14 14 13 11 14 13 11 14 13 15 16 14 15 13 11 6 4 4 7 7 4 4 6 5 8 10 10 8 7 13 19 12 12 13 17 15 15 14 15
21 19 19 18 19 19 15 13 12 14 12 12 12 15 17 16 13 14 11 7 6 7 2 6 7 7 8 6 8 10 13 11 10 8 16 15 15 17 16 18 18 17 17
21 22 20 16 18 18 12 12 12 14 12 14 13 15 16 18 16 13 10 7 9 8 6 4 3 9 5 9 11 9 11 9 13 11 10 16 20 18 16 17 20 19 19
25 25 23 16 19 17 17 15 13 15 14 17 14 15 17 18 15 15 10 7 8 5 7 2 5 2 6 2 4 5 11 15 12 14 12 11 15 19 22 19 19 20 20
26 26 22 20 16 13 14 13 14 14 15 14 15 17 19 19 14 12 8 9 9 6 5 8 4 6 9 2 10 7 4 3 8 7 10 8 15 14 22 15 12 17 20
26 23 23 20 16 13 12 13 11 12 12 14 14 17 20 14 12 14 10 17 7 11 10 4 6 6 7 10 11 6 3 2 6 16 18 17 13 17 20 15 17 24 22
24 18 16 19 15 12 12 14 16 17 14 16 18 18 19 18 17 16 11 11 11 7 2 10 5 6 6 8 4 4 6 15 4 3 12 15 16 14 16 18 15 19 21
23 18 17 20 15 13 14 15 15 14 14 17 17 18 21 18 19 21 19 15 14 13 7 7 2 2 3 6 4 7 9 9 4 8 2 10 18 16 12 19 18 19 19
14 13 19 21 18 16 17 16 16 13 16 19 18 19 22 20 18 17 18 16 12 10 6 4 5 4 5 8 9 8 5 2 5 9 2 1 5 4 11 14 21 22 24
Wind_Direction
135 135 136 133 130 131 130 129 125 125 123 121 114 110 112 116 115 110 111 109 110 115 109 102 94 87 89 96 93 95 97 99 105 105 105 108 111 107 105 99 104 102 97
136 136 138 137 139 136 136 133 133 130 127 125 120 117 118 117 120 117 115 113 114 110 106 101 94 89 92 99 107 109 110 114 112 114 114 114 114 104 116 117 117 106 101
134 138 138 139 141 141 136 137 135 130 130 129 124 125 128 126 123 125 121 122 117 113 109 107 104 98 94 104 119 127 126 125 124 120 118 121 126 115 123 120 111 112 103
137 138 140 141 139 141 139 137 135 134 134 129 125 126 131 134 132 129 133 133 131 132 125 127 120 118 109 112 124 131 129 133 141 135 124 159 133 136 126 128 123 123 118
138 138 140 142 140 140 141 136 132 132 131 126 122 119 125 133 135 145 151 164 165 163 166 146 141 136 128 126 125 127 123 119 108 159 165 166 147 147 147 139 133 126 127
133 134 142 139 133 138 140 139 137 138 134 128 124 127 144 144 133 133 126 197 213 195 184 182 155 146 137 149 146 142 144 154 216 77 231 203 180 173 154 144 139 136 139
133 134 139 142 136 135 136 139 135 140 138 136 132 135 146 165 169 204 7 318 222 191 177 181 165 159 146 147 158 165 220 243 260 215 251 249 202 174 163 148 141 137 138
135 140 141 142 140 137 135 135 133 130 129 137 144 142 141 180 254 269 281 284 250 173 178 190 173 164 165 161 187 214 259 269 275 243 263 269 216 195 185 169 172 145 142
141 143 147 146 143 140 139 138 140 146 145 137 140 148 174 227 245 264 272 260 245 206 200 195 176 183 178 199 210 238 256 256 253 230 273 239 211 205 183 176 173 168 152
145 146 152 159 151 157 153 154 154 148 163 172 140 152 177 232 251 284 252 241 229 222 226 217 214 200 201 214 221 226 236 238 246 232 212 209 199 200 194 182 183 175 164
158 150 162 167 168 183 170 174 158 156 146 152 167 167 184 208 250 281 234 241 224 222 228 229 227 229 239 250 250 230 215 219 219 198 216 199 200 211 190 197 183 175 173
155 169 166 176 178 187 177 179 183 167 168 167 170 184 194 204 236 248 242 228 231 231 235 241 251 250 230 243 244 238 231 208 202 206 205 211 200 182 178 173 174 183 183
170 168 177 180 183 182 177 181 166 182 174 176 187 196 208 216 250 245 240 226 225 215 209 245 274 257 230 231 240 219 227 243 224 211 205 202 180 168 169 165 173 186 187
171 171 173 179 188 184 184 179 181 184 184 191 192 201 206 211 236 261 252 242 225 214 171 144 250 226 251 223 236 225 235 232 179 183 205 189 173 169 172 172 176 193 196
155 168 176 171 191 184 188 188 182 173 186 201 201 199 209 231 255 258 241 293 171 210 199 240 213 233 246 235 215 181 266 238 189 179 184 165 171 170 176 181 182 178 196
168 153 159 168 176 178 189 178 190 187 197 193 203 204 210 226 247 256 268 247 210 235 25 242 272 258 246 261 168 185 177 172 156 151 167 164 173 168 173 179 182 187 185
151 159 170 170 175 180 187 177 181 180 179 194 204 204 214 229 232 244 271 241 269 214 220 227 258 256 295 315 169 185 200 193 148 170 146 158 171 170 182 181 182 187 190
163 166 164 177 183 191 192 194 203 192 190 195 202 203 206 213 204 242 267 230 244 220 247 254 212 275 315 326 205 199 196 158 157 159 150 138 167 176 183 190 192 198 201
166 167 177 187 187 182 191 202 194 189 176 189 201 189 198 205 209 221 230 237 230 252 21 249 293 155 17 173 248 208 185 166 158 175 168 160 158 180 192 199 206 211 210
163 177 184 194 200 194 190 198 186 179 180 190 189 187 195 192 200 230 233 207 236 253 250 355 26 319 26 235 174 173 211 183 188 151 167 184 171 186 180 198 198 206 210
164 176 184 183 181 190 192 184 174 181 175 187 187 179 193 198 203 232 241 230 232 259 274 259 274 240 338 232 24 100 208 196 180 168 173 182 168 191 183 196 202 199 212
171 173 173 179 191 199 208 192 182 189 176 166 178 190 200 188 204 228 244 225 215 250 196 206 284 14 318 331 76 71 349 185 178 179 186 175 165 173 184 187 193 193 212
166 169 171 182 194 197 210 190 182 180 181 178 183 184 184 195 195 206 213 209 245 239 255 189 100 39 290 305 159 164 155 250 312 186 201 195 191 190 182 187 203 205 208
164 161 174 169 189 189 195 193 183 177 179 185 192 192 192 195 198 199 214 216 237 243 277 244 165 222 258 311 81 101 138 170 205 208 201 192 187 191 196 190 205 194 199
147 157 171 172 182 188 191 194 198 196 196 192 195 192 198 199 204 198 197 208 230 238 262 236 328 253 294 343 72 270 203 189 196 56 348 309 213 189 194 204 205 205 209
141 163 167 172 181 183 190 195 200 194 202 197 203 206 200 204 209 218 204 208 224 238 263 254 247 275 300 317 320 331 98 99 47 35 179 186 253 32 226 309 203 220 208